Location: Maiden
(35.5760°N, 81.2120°W)
Time: 19:59:24
(UTC-05:00)

ISS - Visible Passes

Search period start: 01 March 2015 00:00
Search period end: 11 March 2015 01:00
Orbit: 397 x 407 km, 51.6° (Epoch: 01 March)

Date Brightness Start Highest point End Pass type
(mag) Time Alt. Az. Time Alt. Az. Time Alt. Az.
08 Mar -2.2 07:19:01 10° SSW 07:22:06 44° SE 07:25:12 10° ENE visible
09 Mar -0.9 06:26:37 10° S 06:29:03 20° SE 06:31:33 10° E visible
10 Mar -3.3 07:08:54 10° WSW 07:12:06 63° NW 07:15:19 10° NE visible
